Location: Dunedin
(45.8900°S, 170.5000°E)
Time: 20:31:47
(UTC+13:00)

ISS - Visible Passes

Search period start: 18 October 2017 00:00
Search period end: 28 October 2017 00:00
Orbit: 401 x 408 km, 51.6° (Epoch: 19 October)

Date Brightness Start Highest point End Pass type
(mag) Time Alt. Az. Time Alt. Az. Time Alt. Az.
18 Oct -2.1 04:25:39 24° SSW 04:26:52 32° S 04:29:56 10° ESE visible
18 Oct -3.7 06:00:17 10° WSW 06:03:39 88° SSE 06:07:00 10° ENE visible
19 Oct -1.4 03:35:28 24° SE 03:35:28 24° SE 03:37:26 10° ESE visible
19 Oct -3.2 05:08:07 11° WSW 05:11:21 57° SSE 05:14:40 10° ENE visible
20 Oct -2.6 04:18:02 32° SSW 04:18:59 41° SSE 04:22:12 10° E visible
20 Oct -3.4 05:52:17 10° WSW 05:55:31 46° NW 05:58:43 10° NE visible
21 Oct -1.3 03:28:10 21° ESE 03:28:10 21° ESE 03:29:39 10° ESE visible
21 Oct -3.9 05:00:51 17° WSW 05:03:18 79° NNW 05:06:38 10° NE visible
22 Oct -3.3 04:11:17 61° ESE 04:11:17 61° ESE 04:14:18 10° ENE visible
22 Oct -2.5 05:44:32 10° W 05:47:13 22° NW 05:49:52 10° N visible
23 Oct -3.3 04:54:56 38° NW 04:55:03 38° NW 04:58:10 10° NNE visible
23 Oct -1.6 21:33:46 10° N 21:34:17 12° N 21:34:17 12° N visible
24 Oct -1.5 05:39:18 10° NW 05:39:18 10° NW 05:39:21 10° NW visible
24 Oct -3.3 22:16:38 10° NW 22:19:10 46° NNW 22:19:10 46° NNW visible
25 Oct -3.2 21:24:34 10° NNW 21:27:41 37° NE 21:30:33 12° ESE visible
25 Oct -2.3 23:00:52 10° W 23:03:17 37° WSW 23:03:17 37° WSW visible
26 Oct -3.5 22:08:21 10° WNW 22:11:42 68° SSW 22:14:02 18° SE visible
26 Oct -1.0 23:45:32 10° WSW 23:46:44 18° SW 23:46:44 18° SW visible
27 Oct -3.8 21:15:58 10° NW 21:19:18 77° NNE 21:22:41 10° ESE visible
27 Oct -2.1 22:52:54 10° WSW 22:56:01 34° SSW 22:57:01 28° SSE visible
